Lawton, OK

8:59 PM CDT on July 23, 2017 (GMT -0500)
Lawton-Fort Sill Regional

Weather History for KLAW - September, 2012

Change the Weather History Date:

Tuesday, September 18, 2012

  Actual Average Record
Temperature  
Mean Temperature 70 °F -  
Max Temperature 82 °F 84 °F 103 °F (1952)
Min Temperature 59 °F 61 °F 42 °F (1981)
Cooling Degree Days 6    
Growing Degree Days 20 (Base 50)    
Moisture  
Dew Point 46 °F    
Average Humidity 46    
Maximum Humidity 75    
Minimum Humidity 21    
Precipitation  
Precipitation 0.00 in - - ()
Sea Level Pressure  
Sea Level Pressure 30.06 in    
Wind  
Wind Speed 13 mph (NE)    
Max Wind Speed 20 mph    
Max Gust Speed 29 mph    
Visibility 9 miles    
Events      
Averages and records for this station are not official NWS values.
T = Trace of Precipitation, MM = Missing Value Source: NWS Daily Summary

Daily Weather History Graph

Daily Weather History Graph

Search for Another Location

Airport or City:

Trip Planner

Search our weather history database for the weather conditions in past years. The results will help you decide how hot, cold, wet, or windy it might be!

Date:

Astronomy

Sep. 18, 2012 Rise Set
Actual Time 7:19 AM CDT 7:35 PM CDT
Civil Twilight 6:54 AM CDT 8:00 PM CDT
Nautical Twilight 6:24 AM CDT 8:29 PM CDT
Astronomical Twilight 5:54 AM CDT 8:59 PM CDT
Moon 10:10 AM CDT (9/18) 9:10 PM CDT (9/18)
Length of Visible Light 13h 06m
Length of Day
12h 16m
Waxing Crescent, 9% of the Moon is Illuminated
Sep 18
Waxing Crescent
Sep 22
First Quarter
Sep 29
Full
Oct 8
Last Quarter
Oct 15
New

Hourly Weather History & Observations

Time (CDT) Temp. Dew Point Humidity Pressure Visibility Wind Dir Wind Speed Gust Speed Precip Events Conditions
12:53 AM 69.1 °F 57.0 °F 65% 29.96 in 10.0 mi North 17.3 mph - N/A   Clear
1:53 AM 66.9 °F 57.0 °F 70% 29.97 in 10.0 mi North 18.4 mph 21.9 mph N/A   Mostly Cloudy
2:53 AM 64.0 °F 55.9 °F 75% 29.99 in 10.0 mi North 19.6 mph - N/A   Clear
3:53 AM 62.1 °F 54.0 °F 75% 29.98 in 10.0 mi North 13.8 mph 23.0 mph N/A   Clear
4:53 AM 62.1 °F 53.1 °F 72% 29.99 in 10.0 mi North 19.6 mph 28.8 mph N/A   Mostly Cloudy
5:43 AM 60.8 °F 51.8 °F 72% 30.04 in 10.0 mi North 13.8 mph 20.7 mph N/A   Mostly Cloudy
5:53 AM 61.0 °F 52.0 °F 72% 30.03 in 10.0 mi North 12.7 mph 21.9 mph N/A   Scattered Clouds
6:53 AM 60.1 °F 51.1 °F 72% 30.06 in 10.0 mi NNE 10.4 mph - N/A   Clear
7:53 AM 59.0 °F 50.0 °F 72% 30.09 in 10.0 mi North 10.4 mph - N/A   Clear
8:53 AM 63.0 °F 48.0 °F 58% 30.11 in 9.0 mi NNE 11.5 mph - N/A   Clear
9:53 AM 66.9 °F 45.0 °F 45% 30.13 in 10.0 mi NE 10.4 mph - N/A   Clear
10:53 AM 71.1 °F 43.0 °F 36% 30.14 in 5.0 mi NE 13.8 mph - N/A   Haze
11:53 AM 73.9 °F 41.0 °F 30% 30.13 in 6.0 mi ENE 16.1 mph 19.6 mph N/A   Haze
11:56 AM 73.4 °F 39.2 °F 29% 30.16 in 10.0 mi ENE 15.0 mph 19.6 mph N/A   Clear
12:53 PM 77.0 °F 42.1 °F 29% 30.12 in 7.0 mi NE 11.5 mph - N/A   Clear
1:11 PM 77.0 °F 42.8 °F 29% 30.15 in 5.0 mi NE 12.7 mph 17.3 mph N/A   Haze
1:53 PM 78.1 °F 39.9 °F 25% 30.11 in 10.0 mi NE 10.4 mph - N/A   Clear
2:53 PM 81.0 °F 39.0 °F 22% 30.08 in 10.0 mi North 4.6 mph - N/A   Clear
3:53 PM 81.0 °F 37.9 °F 21% 30.06 in 10.0 mi NNE 8.1 mph - N/A   Clear
4:53 PM 82.0 °F 37.9 °F 21% 30.04 in 10.0 mi Calm Calm - N/A   Clear
5:53 PM 80.1 °F 37.0 °F 21% 30.03 in 10.0 mi East 3.5 mph - N/A   Clear
6:53 PM 80.1 °F 37.9 °F 22% 30.03 in 10.0 mi Calm Calm - N/A   Clear
7:53 PM 73.9 °F 41.0 °F 30% 30.04 in 10.0 mi SE 4.6 mph - N/A   Clear
8:53 PM 69.1 °F 43.0 °F 39% 30.06 in 10.0 mi SSE 3.5 mph - N/A   Clear
9:53 PM 64.9 °F 44.1 °F 47% 30.08 in 10.0 mi SW 3.5 mph - N/A   Clear
10:53 PM 62.1 °F 45.0 °F 53% 30.08 in 10.0 mi Calm Calm - N/A   Clear
11:53 PM 64.0 °F 45.0 °F 50% 30.08 in 10.0 mi South 4.6 mph - N/A   Clear